Date,TemperatureHighF,TemperatureAvgF,TemperatureLowF,DewpointHighF,DewpointAvgF,DewpointLowF,HumidityHigh,HumidityAvg,HumidityLow,PressureMaxIn,PressureMinIn,WindSpeedMaxMPH,WindSpeedAvgMPH,GustSpeedMaxMPH,PrecipitationSumIn
2013-1-1,28.6,18.1,12.8,19.5,14.6,10.2,93,86,66,30.51,30.39,8,2,9,0.00
2013-1-2,18.4,15.9,14.8,15.3,13.2,12.4,92,89,86,30.49,30.37,3,1,4,0.00
2013-1-3,27.5,16.3,10.8,16.4,11.6,7.7,89,82,60,30.37,30.22,5,1,7,0.00
2013-1-4,48.1,25.5,17.3,25.4,16.6,11.5,85,70,39,30.35,30.23,7,2,8,0.00
2013-1-5,27.5,22.2,16.4,24.8,19.2,13.3,92,88,79,30.26,30.16,3,0,3,0.00
2013-1-6,49.7,30.5,20.3,32.3,24.6,18.1,92,80,51,30.19,30.08,7,2,10,0.00
2013-1-7,53.6,42.5,33.7,38.7,32.6,26.0,82,68,51,30.15,30.00,14,5,14,0.29
2013-1-8,55.3,44.6,38.3,39.3,35.3,32.1,80,70,53,30.16,29.97,13,4,13,0.00
2013-1-9,49.0,39.3,27.9,34.3,28.7,20.9,79,66,47,29.98,29.75,19,6,19,0.00
2013-1-10,35.6,28.5,22.1,28.4,21.9,17.1,90,76,54,29.99,29.89,7,2,11,0.00
2013-1-11,35.3,23.8,16.9,22.4,16.9,12.1,84,75,56,30.20,29.98,9,2,12,0.00
2013-1-12,36.5,18.3,10.6,19.9,10.9,5.9,83,74,45,30.28,30.19,6,2,7,0.00
2013-1-13,34.9,17.5,7.4,16.0,9.6,2.5,84,72,42,30.38,30.26,5,1,6,0.00
2013-1-14,43.6,24.7,12.4,25.4,13.8,5.9,81,65,36,30.42,30.29,9,2,9,0.00
2013-1-15,54.4,30.5,19.1,27.0,20.1,13.4,80,67,34,30.55,30.40,8,2,9,0.00
2013-1-16,59.8,35.0,21.8,25.1,20.3,14.6,75,58,25,30.56,30.44,8,2,8,0.00
2013-1-17,57.2,35.9,25.2,24.6,20.2,17.1,72,55,27,30.48,30.34,9,2,11,0.00
2013-1-18,51.1,34.7,25.2,24.8,19.4,15.7,69,55,34,30.37,30.29,8,2,10,0.00
2013-1-19,61.4,35.5,23.2,26.7,20.1,15.7,74,57,22,30.38,30.29,8,2,8,0.00
2013-1-20,48.6,31.3,21.1,26.2,20.1,14.2,86,65,37,30.42,30.31,5,1,5,0.00
2013-1-21,48.1,27.0,16.6,25.7,18.8,12.5,88,73,33,30.32,30.18,9,1,9,0.00
2013-1-22,27.7,21.3,16.7,23.2,18.5,14.4,91,89,82,30.21,30.06,7,1,7,0.00
2013-1-23,33.5,27.1,23.0,30.3,24.2,20.5,91,89,82,30.12,29.89,7,2,9,0.00
2013-1-24,53.8,37.0,29.0,38.6,31.9,26.7,93,83,48,30.18,30.09,5,1,5,0.00
2013-1-25,47.7,43.4,36.4,43.0,39.1,33.4,94,85,77,30.13,29.94,9,3,9,0.41
2013-1-26,43.7,36.6,30.2,35.8,26.7,23.8,90,68,49,30.02,29.91,14,3,14,0.00
2013-1-27,40.1,32.9,27.2,27.5,25.0,22.7,84,73,52,30.07,30.00,12,2,12,0.00
2013-1-28,38.0,35.5,31.7,31.4,28.7,26.3,86,76,69,30.09,29.99,13,4,16,0.00
2013-1-29,45.7,40.1,36.7,34.3,31.7,29.9,77,72,63,30.36,30.08,20,6,20,0.00
2013-1-30,49.7,43.5,37.3,36.5,33.5,29.8,80,68,60,30.40,30.35,14,4,17,0.00
2013-1-31,50.2,38.3,28.8,37.4,31.8,26.6,92,78,55,30.37,30.27,7,1,7,0.00
2013-2-1,52.6,36.3,26.3,37.7,30.3,24.0,92,80,49,30.39,30.29,5,1,6,0.02
2013-2-2,47.5,33.3,23.4,35.0,28.3,20.9,92,83,61,30.41,30.26,5,1,5,0.00
2013-2-3,56.7,41.9,28.4,35.3,28.8,25.3,90,64,32,30.26,30.14,10,3,10,0.00
2013-2-4,54.2,41.4,33.3,34.8,30.5,26.9,83,66,43,30.16,29.94,4,1,5,0.00
2013-2-5,49.0,39.3,31.9,34.8,29.3,26.0,83,68,47,30.04,29.90,14,4,18,0.00
2013-2-6,48.6,38.6,31.5,28.8,26.8,25.3,80,64,44,30.09,29.89,7,2,7,0.00
2013-2-7,43.9,35.8,29.3,28.6,24.7,20.6,82,65,42,30.05,29.88,9,2,9,0.00
2013-2-8,43.7,31.0,19.8,26.7,21.7,17.0,90,71,41,30.14,30.05,7,2,10,0.00
2013-2-9,45.7,30.8,17.6,31.1,23.6,14.3,88,76,54,30.20,30.11,7,1,8,0.00
2013-2-10,48.1,33.3,22.3,30.3,23.7,19.8,91,70,41,30.27,30.19,7,1,7,0.00
2013-2-11,49.9,35.4,20.0,33.8,26.5,16.7,88,71,49,30.31,30.18,10,2,11,0.00
2013-2-12,50.8,38.6,28.8,36.1,30.1,25.7,90,73,50,30.39,30.31,14,3,15,0.00
2013-2-13,47.0,38.7,30.8,34.8,31.2,27.7,88,75,58,30.44,30.33,12,3,14,0.00
2013-2-14,57.4,38.6,25.2,39.0,31.5,23.0,93,78,46,30.49,30.39,8,2,8,0.00
2013-2-15,56.2,39.1,26.6,40.1,32.5,24.7,93,79,53,30.47,30.24,8,1,9,0.00
2013-2-16,52.9,38.0,28.3,37.5,29.7,23.8,92,74,46,30.25,30.14,14,3,16,0.00
2013-2-17,48.2,34.7,25.2,26.0,23.7,20.3,83,66,38,30.19,30.04,9,2,10,0.00
2013-2-18,39.8,31.8,23.9,28.2,24.1,20.4,89,74,56,30.04,29.74,6,1,7,0.00
2013-2-19,45.7,31.2,20.2,27.4,22.6,16.8,89,72,44,29.93,29.70,11,2,11,0.00
2013-2-20,43.7,31.5,18.4,27.6,22.5,15.3,89,71,45,30.03,29.93,13,2,15,0.00
2013-2-21,40.0,35.1,28.1,27.2,25.5,22.6,83,68,57,30.13,30.03,17,5,17,0.00
2013-2-22,50.0,38.7,29.5,35.3,29.4,23.9,92,70,51,30.12,29.85,19,6,20,0.00
2013-2-23,41.6,33.3,26.5,27.3,23.4,20.8,86,67,49,30.32,29.99,14,5,17,0.04
2013-2-24,49.7,33.9,21.4,27.8,23.1,17.0,85,67,38,30.36,30.06,8,2,8,0.00
2013-2-25,42.8,35.3,27.5,34.1,26.7,20.7,87,72,51,30.28,29.99,18,5,18,0.04
2013-2-26,50.0,36.0,21.6,24.8,18.9,10.3,81,55,22,30.33,30.19,10,2,10,0.00
2013-2-27,50.2,39.2,28.6,34.9,25.4,18.9,69,58,40,30.29,30.21,8,2,8,0.00
2013-2-28,55.1,50.6,44.6,41.9,40.5,38.2,80,68,59,30.42,30.28,13,5,13,0.00
2013-3-1,64.4,52.4,37.4,39.3,36.5,32.1,82,57,34,30.45,30.30,7,1,7,0.00
2013-3-2,56.7,44.7,35.8,39.3,34.7,30.7,83,69,47,30.30,30.11,15,3,18,0.00
2013-3-3,49.3,37.4,25.6,34.8,21.0,8.8,78,55,22,30.22,30.10,8,4,12,0.00
2013-3-4,49.5,33.5,16.7,23.9,19.2,12.7,85,59,33,30.21,29.96,11,2,11,0.00
2013-3-5,41.9,33.7,25.6,30.3,24.3,18.3,89,69,52,29.96,29.70,10,2,10,0.00
2013-3-6,39.8,34.1,29.2,36.2,29.3,24.4,93,83,61,29.95,29.56,15,3,16,0.35
2013-3-7,50.0,36.3,22.3,30.1,25.5,18.7,87,67,38,30.03,29.95,10,2,10,0.00
2013-3-8,50.9,37.9,28.4,32.4,27.6,22.9,89,69,41,30.13,29.98,10,2,10,0.00
2013-3-9,58.9,48.3,33.3,28.0,22.6,19.2,66,38,24,30.43,30.33,8,2,8,0.00
2013-3-10,60.5,51.4,43.0,38.9,34.0,22.6,79,54,25,30.39,30.32,17,4,17,0.00
2013-3-11,55.4,46.1,36.9,42.3,38.4,33.3,89,75,58,30.35,30.23,11,2,11,0.00
2013-3-12,64.4,48.0,33.1,41.3,35.3,25.0,92,66,25,30.24,30.11,12,2,12,0.00
2013-3-13,70.0,51.2,39.4,41.1,36.0,32.3,78,58,32,30.22,30.13,9,2,9,0.00
2013-3-14,68.8,51.2,38.3,41.8,33.8,22.1,82,56,25,30.20,30.06,16,4,17,0.00
2013-3-15,60.1,49.6,37.4,40.3,36.0,29.4,82,62,31,30.22,30.15,13,3,13,0.00
2013-3-16,52.9,41.4,32.0,36.4,31.6,28.2,89,70,45,30.15,29.94,18,5,18,0.04
2013-3-17,42.3,35.9,30.4,28.0,23.3,18.3,79,61,46,30.19,30.03,16,6,16,0.00
2013-3-18,55.4,40.1,26.3,27.5,24.4,19.2,79,57,25,30.20,30.11,10,3,10,0.00
2013-3-19,48.6,39.9,28.3,34.5,26.8,22.5,82,61,43,30.16,29.86,10,2,10,0.07
2013-3-20,53.5,44.0,34.0,42.6,35.3,27.2,89,72,55,30.00,29.64,17,9,20,0.23
2013-3-21,41.0,34.0,29.2,26.6,24.7,22.5,82,69,49,30.19,30.14,14,5,19,0.00
2013-3-22,42.8,33.0,24.8,24.1,20.5,14.9,88,63,34,30.28,30.17,13,4,17,0.00
2013-3-23,47.3,34.4,24.7,25.0,21.0,16.1,82,60,34,30.29,30.19,8,2,8,0.00
2013-3-24,48.4,36.6,25.0,27.4,23.4,18.6,79,60,42,30.23,30.10,8,2,9,0.00
2013-3-25,51.8,42.0,29.5,31.9,27.7,23.3,79,58,45,30.11,29.93,9,2,9,0.00
2013-3-26,53.1,44.9,38.5,38.4,34.8,28.8,82,68,55,30.01,29.95,8,2,9,0.00
2013-3-27,60.5,44.9,30.2,44.8,37.1,28.3,93,76,46,30.01,29.92,8,2,14,0.09
2013-3-28,60.8,48.0,39.6,45.5,41.4,37.7,93,79,49,30.14,30.01,9,2,9,0.15
2013-3-29,64.3,52.5,42.1,46.3,43.2,40.2,94,74,46,30.22,30.14,6,2,7,0.02
2013-4-1,65.0,54.8,42.3,44.5,41.7,38.1,87,63,45,30.14,30.04,12,4,12,0.00
2013-4-2,67.0,49.2,36.2,42.9,38.4,33.2,91,69,37,30.19,30.11,10,3,10,0.00
2013-4-3,69.8,51.5,33.1,41.3,35.8,29.8,90,60,26,30.17,29.98,7,2,7,0.00
2013-4-4,65.5,51.8,42.1,45.5,41.2,38.6,90,68,39,29.98,29.75,19,4,21,0.22
2013-4-5,57.1,46.6,39.2,41.0,38.9,36.6,93,76,50,29.99,29.91,15,3,16,0.00
2013-4-6,55.1,46.9,41.9,39.7,36.5,33.9,83,68,45,30.00,29.80,18,7,18,0.09
2013-4-7,48.4,43.4,33.3,38.9,33.0,26.6,83,67,47,29.88,29.67,31,9,31,0.08
2013-4-8,54.0,43.6,27.7,30.3,28.0,23.5,85,56,39,30.22,29.88,14,4,15,0.00
2013-4-9,61.9,43.7,23.9,35.7,29.0,20.8,89,61,29,30.32,30.22,7,2,7,0.00
2013-4-10,60.5,50.0,40.7,45.2,35.8,29.8,72,59,37,30.25,30.10,20,6,20,0.00
2013-4-11,57.1,42.7,28.8,32.9,29.0,24.8,86,61,37,30.24,30.11,14,3,14,0.00
2013-4-12,63.0,43.8,25.9,36.0,25.8,16.2,86,56,17,30.13,29.79,19,5,19,0.00
2013-4-13,49.0,41.7,33.8,25.8,22.4,19.0,62,47,34,30.02,29.87,21,8,22,0.00
2013-4-14,48.1,36.1,27.7,32.0,25.5,20.1,92,66,38,30.03,29.85,11,3,11,0.09
2013-4-15,47.2,36.0,30.8,35.3,31.3,27.6,93,84,58,30.10,29.87,12,2,13,0.17
2013-4-16,47.7,37.5,28.4,34.5,28.4,23.0,92,72,39,30.34,30.10,12,3,13,0.05
2013-4-17,54.0,39.6,23.0,30.2,24.9,18.3,91,61,27,30.42,30.33,10,2,12,0.00
2013-4-18,64.3,48.3,32.9,40.4,34.6,26.6,82,61,40,30.39,30.28,12,3,15,0.02
2013-4-19,58.7,50.8,43.0,41.0,38.4,34.7,74,63,47,30.28,30.15,17,6,17,0.00
2013-4-20,61.6,48.7,36.4,36.3,33.9,31.4,83,59,36,30.26,30.18,13,4,17,0.24
2013-4-21,59.8,47.0,32.4,41.5,35.5,28.0,87,66,47,30.23,30.15,15,4,17,0.00
2013-4-22,57.4,45.9,34.9,35.8,27.0,17.4,82,52,25,30.40,30.22,12,5,16,0.00
2013-4-23,65.5,44.0,22.5,22.7,16.4,5.7,71,39,7,30.39,30.11,14,3,15,0.00
2013-4-24,73.4,50.4,26.6,25.1,19.6,14.9,63,34,13,30.29,30.03,8,2,11,0.00
2013-4-25,77.8,55.4,33.8,37.4,28.9,20.4,61,39,22,30.14,30.02,17,3,17,0.00
2013-4-26,82.1,60.2,36.2,41.3,32.3,21.4,75,41,12,30.24,30.14,10,3,13,0.02
2013-5-3,76.5,66.3,50.0,36.1,33.5,30.0,46,30,21,30.29,30.19,14,5,14,0.00
2013-5-4,72.4,57.5,37.3,36.7,31.9,28.4,73,41,21,30.21,29.99,22,6,26,0.00
2013-5-5,78.8,62.9,47.3,37.3,33.9,30.6,54,35,22,29.99,29.82,16,6,19,0.11
2013-5-6,86.0,66.6,45.2,42.4,35.6,30.8,65,35,16,29.90,29.79,14,4,16,0.00
2013-5-7,84.1,65.7,47.0,48.9,42.5,33.7,83,47,20,29.98,29.85,14,3,14,0.00
2013-5-8,85.5,64.5,44.5,51.0,43.6,30.5,85,52,16,30.09,29.98,16,3,16,0.00
2013-5-9,89.1,67.5,47.5,49.4,44.8,35.5,85,50,16,30.15,30.06,19,3,19,0.00
2013-5-10,94.3,70.3,49.7,51.8,45.8,40.1,76,46,16,30.21,30.11,11,3,13,0.00
2013-5-11,91.1,69.4,53.1,52.4,48.9,46.3,78,53,23,30.21,30.06,8,2,9,0.06
2013-6-11,50.4,48.0,47.2,34.6,33.9,33.3,61,58,52,30.10,30.08,4,2,4,0.00
2013-6-12,65.5,51.9,37.6,38.5,35.3,31.4,79,56,35,30.14,30.08,9,4,9,0.00
2013-6-13,61.7,54.9,42.1,40.3,37.9,35.1,77,54,41,30.23,30.14,15,6,15,0.00
2013-6-14,77.0,56.2,38.7,37.9,35.5,31.3,80,51,19,30.24,30.03,7,3,7,0.00
2013-6-15,88.2,76.1,61.0,45.6,39.0,32.8,53,29,16,29.99,29.88,10,4,10,0.02
2013-6-16,83.2,62.1,50.0,51.6,44.8,39.9,70,55,27,30.10,29.97,17,3,17,0.00
2013-6-18,60.3,55.2,50.6,46.4,39.9,36.5,68,57,47,29.94,29.88,10,3,16,0.00
2013-6-19,64.4,54.2,47.9,39.8,38.2,35.9,70,56,37,30.05,29.91,21,7,21,0.00
2013-6-20,70.4,55.3,41.0,40.1,36.7,33.0,74,52,30,30.09,30.00,14,5,16,0.00
2013-6-21,63.4,54.4,44.3,44.8,40.8,36.5,87,62,43,30.12,30.08,9,2,13,0.00
2013-6-22,82.6,62.3,38.9,43.2,40.2,34.9,87,50,23,30.12,29.90,10,2,10,0.00
2013-6-23,68.4,62.0,54.2,57.1,50.3,41.6,94,68,40,29.92,29.73,7,2,8,0.20
2013-6-24,67.3,56.8,50.0,53.8,49.0,44.7,95,76,50,29.78,29.70,8,2,8,0.28
2013-6-25,66.4,59.0,52.6,55.0,50.7,48.4,94,75,55,29.93,29.75,8,2,10,0.22
2013-6-26,71.8,61.1,53.5,57.2,52.1,49.3,88,73,51,30.09,29.92,7,2,9,0.02
2013-6-27,90.5,69.7,49.3,57.3,53.5,46.8,92,61,32,30.19,30.07,10,3,14,0.00
2013-6-28,97.0,76.8,56.5,61.5,56.6,52.2,88,54,26,30.21,30.03,10,3,12,0.00
2013-6-29,90.9,78.0,63.2,62.1,57.8,54.2,81,53,32,30.10,30.01,13,4,13,0.00
2013-6-30,102.2,80.2,57.2,59.9,55.6,51.1,81,47,22,30.06,29.92,14,4,14,0.00
2013-7-1,102.6,86.3,74.5,63.6,57.8,54.0,63,40,22,30.08,29.97,11,4,12,0.00
2013-7-2,103.5,84.0,64.8,65.1,59.5,50.6,78,48,18,30.11,30.02,14,3,15,0.00
2013-7-3,97.0,81.4,65.3,57.4,50.2,35.7,67,36,22,30.12,30.01,13,5,16,0.00
2013-7-4,86.0,70.9,52.4,45.3,39.2,34.5,57,34,19,30.07,29.95,16,4,20,0.00
2013-7-5,84.6,64.8,46.8,45.6,39.0,29.7,75,43,16,30.00,29.89,14,4,19,0.00
2013-7-10,94.3,83.5,67.9,53.1,45.8,38.8,46,29,16,30.06,29.88,16,6,16,0.00
2013-7-11,89.1,70.7,53.6,48.3,41.9,29.4,71,38,16,30.00,29.88,13,4,13,0.00
2013-7-12,81.7,64.5,44.8,42.3,33.5,22.1,61,35,12,30.04,29.90,15,4,15,0.00
2013-7-13,88.4,65.5,43.4,41.7,35.3,25.0,76,39,12,30.12,30.02,11,3,11,0.00
2013-7-14,94.9,73.9,45.5,45.8,35.0,22.9,51,27,13,30.12,29.95,12,4,12,0.00
2013-7-15,93.4,74.0,52.6,43.1,37.9,34.7,58,30,14,30.03,29.85,15,5,18,0.00
2013-7-16,93.6,75.7,64.1,51.4,40.5,34.8,47,30,17,29.95,29.85,13,5,16,0.00
2013-7-17,96.5,76.9,54.4,48.8,40.8,32.9,63,32,13,30.14,29.95,12,4,16,0.00
2013-7-18,99.9,77.3,52.2,47.7,39.8,32.0,67,32,10,30.17,29.99,12,4,15,0.00
2013-7-19,96.7,69.3,52.9,42.9,34.8,24.2,62,33,7,30.08,29.97,12,2,12,0.00
2013-7-20,100.6,77.1,53.3,41.3,29.6,15.9,60,21,5,30.01,29.88,13,4,14,0.00
2013-7-21,106.2,89.3,65.5,44.5,35.3,23.8,37,16,6,29.93,29.85,14,4,14,0.00
2013-7-22,98.6,76.5,53.1,41.8,36.3,30.2,56,28,11,30.00,29.89,12,4,15,0.00
2013-7-23,86.4,64.1,55.8,41.2,33.5,28.9,50,33,17,30.00,29.94,3,1,3,0.00
2013-7-27,91.3,79.4,59.4,41.0,33.4,23.7,39,21,10,30.09,29.99,14,5,18,0.00
2013-7-28,87.5,67.7,47.2,44.2,36.4,29.3,62,35,16,30.03,29.93,17,3,17,0.00
2013-7-29,91.4,69.6,47.2,45.7,38.7,30.2,72,38,13,30.05,29.93,11,3,11,0.00
2013-7-30,88.7,62.4,47.9,51.3,44.1,30.5,72,52,13,30.15,30.05,8,2,8,0.00
2013-7-31,88.2,71.1,58.1,52.2,45.1,34.2,64,43,16,30.15,30.01,13,3,13,0.09
2013-8-1,77.4,63.5,54.4,59.2,50.5,43.1,86,64,42,30.11,30.01,16,4,16,0.08
2013-8-2,80.5,62.1,45.0,47.6,44.5,39.0,85,56,29,30.15,30.06,12,3,12,0.00
2013-8-3,91.1,69.7,46.3,48.9,41.8,33.0,85,44,16,30.15,30.03,9,3,10,0.00
2013-8-4,93.4,74.2,52.9,53.6,45.9,38.2,72,41,17,30.11,29.96,8,3,11,0.00
2013-8-5,95.8,75.8,55.8,54.0,47.0,33.7,72,41,13,30.07,29.98,11,3,13,0.00
2013-8-6,97.7,76.1,54.7,51.0,44.1,33.3,69,38,11,30.08,29.97,12,3,12,0.00
2013-8-7,89.3,73.7,54.2,48.5,42.2,36.1,60,35,16,30.07,30.00,19,4,19,0.00
2013-8-8,91.3,75.3,58.3,53.2,46.2,36.3,64,39,16,30.06,29.94,9,2,11,0.00
2013-8-9,91.1,71.5,57.8,56.2,49.8,43.3,83,50,21,30.04,29.88,14,3,16,0.11
2013-8-10,76.3,59.8,49.1,53.6,50.3,45.3,89,73,40,30.08,30.00,11,2,11,0.00
2013-8-11,85.7,74.6,63.0,52.9,48.3,45.1,65,41,25,30.11,30.01,10,4,10,0.00
2013-8-12,91.1,70.4,50.8,52.9,48.6,41.7,86,51,19,30.10,30.00,14,3,16,0.00
2013-8-13,94.7,72.9,51.1,51.2,46.8,41.6,76,45,17,30.14,29.99,8,2,9,0.00
2013-8-14,93.1,74.1,54.7,51.6,47.2,43.5,68,42,19,30.05,29.95,13,3,15,0.00
2013-8-15,92.0,72.2,53.1,56.1,48.8,42.5,71,47,22,30.06,29.95,13,3,15,0.00
2013-8-16,88.9,73.4,59.4,58.9,55.0,51.3,79,55,33,30.10,30.02,10,2,16,0.00
2013-8-17,91.1,72.5,56.2,57.1,53.1,45.5,83,55,24,30.13,30.02,11,3,15,0.00
2013-8-18,91.4,71.9,51.3,55.4,49.1,41.8,84,50,22,30.17,30.06,13,3,13,0.00
2013-8-19,95.6,72.7,52.7,52.5,48.7,44.4,76,47,20,30.15,30.04,14,4,14,0.00
2013-8-20,88.6,70.8,50.0,50.9,38.1,20.6,81,39,7,30.15,30.02,11,3,14,0.00
2013-8-21,90.7,70.8,50.6,44.6,37.3,32.9,52,32,15,30.11,29.99,10,3,11,0.00
2013-8-22,83.7,66.8,57.1,59.9,45.0,34.7,84,49,23,30.05,29.95,14,2,16,0.07
2013-8-23,84.4,69.1,54.2,53.7,50.4,43.8,83,55,26,29.98,29.89,14,4,14,0.00
2013-8-24,85.3,65.0,53.3,57.2,49.8,43.9,80,61,25,29.96,29.85,12,3,15,0.12
2013-8-25,74.7,60.6,52.2,57.1,53.2,44.6,93,78,52,30.01,29.92,14,1,14,2.80
2013-8-26,76.1,61.9,49.1,55.8,50.5,47.4,95,70,39,30.03,29.97,0,0,0,0.08
2013-8-27,87.7,66.5,47.3,55.8,50.4,44.8,91,61,27,30.03,29.85,0,0,0,0.00
2013-8-28,88.6,70.9,55.1,55.8,51.6,45.5,85,56,23,29.98,29.89,0,0,0,0.00
2013-8-29,85.3,69.1,59.4,56.2,54.5,50.6,82,62,31,30.12,29.96,0,0,0,0.00
2013-8-30,85.7,77.9,54.7,54.9,51.4,48.1,86,41,29,30.19,30.07,0,0,0,0.00
2013-9-2,88.4,79.8,71.3,54.0,50.3,45.5,52,37,24,29.97,29.87,7,2,7,0.00
2013-9-3,65.2,64.1,62.5,53.1,52.7,52.6,70,67,64,30.05,30.03,4,4,4,0.00
2013-9-4,86.4,74.7,54.9,52.7,47.3,41.6,78,44,21,30.05,29.96,9,3,9,0.00
2013-9-5,72.7,57.5,51.5,52.8,48.0,44.5,87,72,46,30.08,29.93,13,3,13,0.02
2013-9-6,67.0,61.3,54.0,50.8,48.0,45.9,74,62,53,30.14,30.11,3,2,4,0.55
2013-9-7,77.2,69.4,46.4,53.6,50.8,43.7,90,54,39,30.15,30.02,14,5,14,0.00
2013-9-8,77.9,67.9,49.1,53.1,50.1,46.1,89,56,35,30.14,30.08,12,4,12,0.10
2013-9-9,56.5,52.4,50.4,45.0,43.5,42.4,75,72,64,30.10,30.08,5,2,5,0.00
2013-9-10,86.8,81.2,71.8,51.0,47.9,45.3,42,32,24,30.06,29.96,13,7,13,0.00
2013-9-19,74.3,68.1,59.9,38.4,37.5,36.9,45,34,26,29.90,29.88,6,4,6,0.04
2013-9-20,42.7,42.7,42.7,32.5,32.5,32.5,67,67,67,29.86,29.85,1,1,1,0.00
2013-9-23,0.0,0.0,0.0,0.0,0.0,0.0,26,26,26,30.01,30.01,0,0,0,0.00
2013-11-17,46.3,43.8,42.8,31.8,31.5,31.3,64,62,57,30.00,29.99,0,0,0,0.00
2013-11-23,69.3,66.3,63.5,45.7,43.1,42.0,47,43,42,30.33,30.32,0,0,0,0.00
2013-11-30,59.0,47.3,41.9,38.2,29.8,24.4,67,51,42,30.29,30.22,8,3,9,0.00
2013-12-1,58.5,51.8,40.9,43.9,40.5,30.9,79,65,58,30.23,29.88,19,8,22,0.00
2013-12-2,47.2,37.4,28.8,41.1,31.5,21.9,92,80,55,29.95,29.82,19,5,19,0.95
2013-12-3,29.5,20.9,12.2,23.1,13.4,5.8,85,73,54,30.17,29.94,12,2,12,0.00
2013-12-4,12.2,9.3,6.1,6.0,3.7,0.7,80,77,75,30.22,30.17,2,0,2,0.00
2013-12-5,23.0,14.4,-0.7,11.9,6.6,-6.2,80,71,55,30.20,30.08,8,2,10,0.00
2013-12-6,14.0,11.9,10.4,9.8,7.9,5.9,86,84,79,30.11,29.93,11,4,11,0.00
2013-12-7,11.5,3.7,-12.4,7.6,-3.4,-18.4,86,72,54,30.30,29.98,11,4,12,0.05
2013-12-8,23.0,-0.9,-14.8,10.2,-7.9,-20.8,80,72,52,30.47,30.28,6,2,7,0.00
2013-12-9,30.4,8.9,-1.1,14.1,1.4,-5.8,81,73,48,30.48,30.35,12,3,13,0.00
2013-12-10,27.4,14.9,9.7,18.9,9.4,4.5,82,79,70,30.39,30.36,3,1,4,0.00
2013-12-11,34.2,23.0,13.3,23.9,18.6,9.9,89,84,66,30.35,30.29,5,3,5,0.00
2013-12-14,48.1,40.4,36.4,32.1,30.2,29.2,75,67,53,30.38,30.35,0,0,0,0.32
2013-12-15,54.0,41.4,36.4,39.3,31.6,28.5,78,69,47,30.39,30.32,4,1,4,0.00
2013-12-16,48.2,28.8,24.1,35.5,25.4,21.3,91,87,61,30.42,30.30,5,1,5,0.02
2013-12-17,42.3,34.0,29.0,30.2,25.8,23.3,79,72,62,30.24,30.19,3,2,3,0.00
2013-12-18,36.0,36.0,36.0,27.8,27.8,27.8,72,72,72,29.95,29.95,2,2,2,0.00
2013-12-19,34.2,27.8,21.4,20.3,14.3,11.5,74,57,47,30.21,30.10,7,2,7,0.00
2013-12-20,43.2,37.9,26.8,35.8,31.3,21.2,81,77,73,30.02,29.80,15,7,15,0.04
2013-12-21,43.7,42.9,40.7,36.0,35.3,33.7,76,74,74,29.95,29.85,17,10,17,0.00